Chillicothe, MO

3:42 PM CDT on July 25, 2017 (GMT -0500)
Chillicothe

Weather History for KCDJ - February, 2013

Change the Weather History Date:

Wednesday, February 20, 2013

  Actual Average (KIRK) Record (KIRK)
Temperature  
Mean Temperature 17 °F -  
Max Temperature 24 °F 42 °F 70 °F (2016)
Min Temperature 10 °F 23 °F -9 °F (1929)
Degree Days  
Heating Degree Days 48    
Moisture  
Dew Point 6 °F    
Average Humidity 60    
Maximum Humidity 70    
Minimum Humidity 48    
Precipitation  
Precipitation 0.00 in - - ()
Sea Level Pressure  
Sea Level Pressure 30.42 in    
Wind  
Wind Speed 5 mph (ENE)    
Max Wind Speed 9 mph    
Max Gust Speed -    
Averages and records for this station are not official NWS values.
T = Trace of Precipitation, MM = Missing Value Source: NWS Daily Summary

Daily Weather History Graph

Daily Weather History Graph

Search for Another Location

Airport or City:

Trip Planner

Search our weather history database for the weather conditions in past years. The results will help you decide how hot, cold, wet, or windy it might be!

Date:

Astronomy

Feb. 20, 2013 Rise Set
Actual Time 6:59 AM CST 5:56 PM CST
Civil Twilight 6:32 AM CST 6:24 PM CST
Nautical Twilight 6:01 AM CST 6:55 PM CST
Astronomical Twilight 5:29 AM CST 7:26 PM CST
Moon 1:18 PM CST (2/20) 3:20 AM CST (2/20)
Length of Visible Light 11h 51m
Length of Day
10h 56m
Waxing Gibbous, 76% of the Moon is Illuminated
Feb 20
Waxing Gibbous
Feb 25
Full
Mar 4
Last Quarter
Mar 11
New
Mar 19
First Quarter

Hourly Weather History & Observations

Time (CST) Temp. Windchill Dew Point Humidity Pressure Visibility Wind Dir Wind Speed Gust Speed Precip Events Conditions
12:52 AM 16.0 °F 10.4 °F 3.0 °F 57% 30.43 in - NNW 3.5 mph - N/A   Unknown
1:52 AM 15.1 °F 9.4 °F 3.0 °F 59% 30.43 in - North 3.5 mph - N/A   Unknown
2:52 AM 15.1 °F 7.7 °F 3.0 °F 59% 30.43 in - Variable 4.6 mph - N/A   Unknown
3:52 AM 12.0 °F - 3.0 °F 67% 30.44 in - Calm Calm - N/A   Unknown
4:52 AM 12.0 °F 0.5 °F 3.0 °F 67% 30.44 in - NNE 8.1 mph - N/A   Unknown
5:52 AM 10.9 °F 0.2 °F 1.9 °F 67% 30.44 in - NNE 6.9 mph - N/A   Unknown
6:52 AM 10.0 °F -0.9 °F 1.9 °F 70% 30.45 in - NNE 6.9 mph - N/A   Unknown
7:52 AM 10.9 °F -1.8 °F 1.9 °F 67% 30.49 in - NE 9.2 mph - N/A   Unknown
8:52 AM 12.0 °F 4.1 °F 3.9 °F 70% 30.50 in - ENE 4.6 mph - N/A   Unknown
9:52 AM 14.0 °F 3.9 °F 3.9 °F 64% 30.50 in - NE 6.9 mph - N/A   Unknown
10:52 AM 16.0 °F 8.8 °F 5.0 °F 62% 30.50 in - NE 4.6 mph - N/A   Unknown
11:52 AM 18.0 °F 11.1 °F 6.1 °F 60% 30.48 in - Variable 4.6 mph - N/A   Unknown
12:52 PM 19.9 °F 12.1 °F 7.0 °F 57% 30.45 in - East 5.8 mph - N/A   Unknown
1:52 PM 21.9 °F 15.7 °F 7.0 °F 53% 30.43 in - Variable 4.6 mph - N/A   Unknown
2:52 PM 23.0 °F 14.7 °F 8.1 °F 53% 30.39 in - ENE 6.9 mph - N/A   Unknown
3:52 PM 24.1 °F 15.2 °F 7.0 °F 48% 30.38 in - ENE 8.1 mph - N/A   Unknown
4:52 PM 24.1 °F 14.4 °F 8.1 °F 51% 30.35 in - East 9.2 mph - N/A   Unknown
5:52 PM 24.1 °F 17.0 °F 8.1 °F 51% 30.32 in - ENE 5.8 mph - N/A   Unknown
6:52 PM 24.1 °F 16.0 °F 8.1 °F 51% 30.35 in - East 6.9 mph - N/A   Unknown
7:52 PM 23.0 °F 15.8 °F 9.0 °F 55% 30.36 in - East 5.8 mph - N/A   Unknown
8:52 PM 23.0 °F 14.7 °F 10.0 °F 58% 30.35 in - East 6.9 mph - N/A   Unknown
9:52 PM 21.9 °F 12.5 °F 10.9 °F 63% 30.36 in - East 8.1 mph - N/A   Unknown
10:52 PM 21.9 °F 13.4 °F 10.9 °F 63% 30.35 in - East 6.9 mph - N/A   Unknown
11:52 PM 19.9 °F 13.4 °F 10.9 °F 68% 30.35 in - East 4.6 mph - N/A   Unknown